OBJECT Q, 64890

Orbit data source: Space-Track

You're viewing an Uncataloged Satellite

Recently launched and/or uncataloged satellites may have evolving metadata. Metadata may include but not limited to: Owner, Maufacturer, Bus, Motor, and Mission.

OBJECT Q, 64890 is a satellite in SSO that was launched on Fri, 25 Jul 2025 UTC via a SOYUZ-2-1B launch vehicle from the Vostochny Cosmodrome (VOSTO). Unknown objects in Earth's orbit typically refer to objects detected orbiting the Earth but have not yet been identified or cataloged. These objects could be anything from previously untracked satellites, spent rocket stages, debris from satellite collisions, or even natural meteoroids temporarily captured by Earth's gravity.

Loading next visibility...
Identifier
64890, 2025-155Q
Orbit
SSO
Country
Flag of TBDTBD
Related business
Flag of RUGeoscan (RU)
Manufacturer
SPUT/GEOSK
Mission
Operational spacecraft
Bus & Motor
CUBESAT 3U, Unknown motor
Mass
3 kg wet, 3 kg dry
Launch date (UTC)
2025-07-25 (1 month ago)
Launch vehicle
SOYUZ-2-1B
Launch site
Vostochny Cosmodrome (VOSTO)
Object type
Unknown
Shape & HBR
Unknown
Radar Cross Section
Small (<0.1 m²)

Expand to show TLE details & history
Last TLE update: 8 hours ago

TLE from 8 hours ago
0 OBJECT Q
1 64890U 25155Q   25242.91721074  .00016390  00000-0  70205-3 0  9997
2 64890  97.4161 207.6782 0010647 107.1291 253.1113 15.22804946 36486
Epoch: 2025-08-30T22:00Z
TLE epoch observation values (Epoch: 2025-08-30T22:00:47.007Z)
Latitude
0.00001°
Longitude
-101.86229°
Altitude
502.613 km
Speed
7.612 km/s
True Right ascension
13h 50m 42s
True Declination
0° 00' 00"
Sunlit
Object was in daylight at epoch
Visualization orbit readout
Latitude
Unknown
Longitude
Unknown
Altitude
Unknown
Speed
Unknown
Apparent Right ascension
Unknown
Apparent Declination
Unknown
Sunlit
N/A
Visualization observer readout
Local Sidereal Time
21:40:26
Azimuth
Unknown
Elevation
Unknown
Doppler factor
Unknown
Orbital elements
Apogee altitude
501.664 km
Perigee altitude
487.03 km
Semi-major axis
6,872.484 km
Eccentricity
0.00106
Inclination
97.4161°
RAAN
207.6782°
Arg. of periapsis
107.1291°
True anomaly
252.9946°
Mean anomaly
253.1113°
Eccentric anomaly
253.05295°
Mean motion
3.80954 °/min
Orbital period
94.5 mins
BSTAR
0.00070205
Loading maneuver chart data...
Computing Atmospheric mass density...
Loading historical data...
Loading historical data...
Loading historical data...
Loading historical data...
Loading historical data...
Loading historical data...
Loading historical data...

Documentation

Showing up to 5 results
|